Regional Weather Roundup
Issued by NWS San Diego, CA

Home | Current Version | Previous Version | Text Only | Print | Product List | Glossary On
Versions: 1 2 3 4 5 6 7 8 9 10 11 12 13 14 15 16 17 18 19 20 21 22 23 24 25 26 27 28 29 30 31 32 33 34 35 36 37 38 39 40 41 42 43 44 45 46 47 48 49 50
000
ASUS46 KSGX 072211
RWRSGX

SAN DIEGO HOURLY WEATHER ROUNDUP
NATIONAL WEATHER SERVICE SAN DIEGO CA
300 PM PDT TUE JUL 07 2015

NOTE: "FAIR" INDICATES FEW OR NO CLOUDS BELOW 12,000 FEET WITH NO
SIGNIFICANT WEATHER AND/OR OBSTRUCTIONS TO VISIBILITY.

CAZ042-043-060-061-PZZ750-775-072300-

GREATER SAN DIEGO AREA

CITY           SKY/WX    TMP DP  RH WIND       PRES   REMARKS
LINDBERGH FLD  PTSUNNY   70  57  64 W12       29.94F
POINT LOMA       N/A     71  58  63 W9          N/A
NATIONAL CITY    N/A     73  63  69 SW7       29.94F
CHULA VISTA      N/A     71  64  77 W7        29.87F
IMPERIAL BEACH PTSUNNY   71  59  65 SW13      29.94F
BROWN FIELD    SUNNY     74  60  61 W8        29.93F
MIRAMAR MCAS   MOSUNNY   77  59  53 SW8       29.92F
MONTGOMERY FLD MOSUNNY   73  60  63 SW9       29.93F

$$

NORTH SAN DIEGO COUNTY

CITY           SKY/WX    TMP DP  RH WIND       PRES   REMARKS
CAMP PENDLETON MOSUNNY   73  60  63 SW10      29.91F
OCEANSIDE AP   CLOUDY    72  61  68 W10       29.91F
OCEANSIDE HBR    N/A     69  64  84 SW5       29.95F
VISTA            N/A     73  64  73 SW3       29.90F
CARLSBAD       CLOUDY    68  61  78 SW8       29.92F
DEL MAR          N/A     69  63  80 CALM      29.95F
LA JOLLA SCRIP   N/A    N/A N/A N/A SW8       29.91F
FALLBROOK        N/A     77  65  65 SW7       29.90F
ESCONDIDO        N/A     81  65  58 SW6       29.91F
SAN MARCOS       N/A     73  64  73 W2        29.90F
POWAY            N/A     81  64  55 CALM      29.91F

$$

EAST SAN DIEGO COUNTY

CITY           SKY/WX    TMP DP  RH WIND       PRES   REMARKS
RAMONA         SUNNY     81  61  50 W9        29.92F
SANTEE LAKES     N/A     78  64  60 SW6       29.90F
LA MESA          N/A     76  62  62 CALM      29.67F
JAMUL            N/A     79  64  60 W1        29.90F
DESCANSO N       N/A     81  59  46 W3        29.76F
CAMPO            N/A     87  48  25 SW18      29.91F

$$

ORANGE COUNTY AND THE LOS ANGELES BASIN

CITY           SKY/WX    TMP DP  RH WIND       PRES   REMARKS
JOHN WAYNE AP  PTSUNNY   72  61  68 SW10      29.92F
LAKE FOREST FR   N/A     79  60  52 W5        29.80F
SANTA ANA        N/A     77  65  65 SW1       29.87F
HUNTINGTON BCH   N/A     74  64  71 SW3       29.94F
LOS ALAMITOS   MOSUNNY   74  62  66 SW10      29.92F
FULLERTON      SUNNY     78  61  55 S9        29.91F
LONG BEACH     SUNNY     74  60  61 SW10      29.92F
L.A. AP        MOSUNNY   70  62  76 W10       29.93F
L.A. DOWNTOWN  SUNNY     74  61  63 VRB3      29.91F

$$

THE INLAND EMPIRE

CITY           SKY/WX    TMP DP  RH WIND       PRES   REMARKS
CORONA         SUNNY     81  62  52 W14       29.89F
CHINO          MOSUNNY   85  59  41 W10       29.90F
ONTARIO        MOSUNNY   84  57  39 W9G16     29.90F
SAN BERNARDINO MOSUNNY   86  48  26 W9        29.89F HAZE
RIVERSIDE AP   SUNNY     85  60  42 W10       29.89F
MORENO VALLEY    N/A     90  59  35 W3        29.87F
MARCH ARB      SUNNY     85  58  40 W10       29.90F
HORSETHIEF CYN   N/A     84  58  41 W8        29.91F
PERRIS           N/A     87  58  37 S7          N/A
MENIFEE          N/A     88  62  41 S5        29.95F
HEMET EAST       N/A     87  46  23 CALM      29.90F
FRENCH VALLEY  FAIR      82  59  44 SW9       29.91F
TEMECULA         N/A     85  61  44 SW8       29.85F

$$

SAN BERNARDINO AND RIVERSIDE COUNTY MOUNTAINS

CITY           SKY/WX    TMP DP  RH WIND       PRES   REMARKS
BIG BEAR AP    SUNNY     73  37  27 SW6G17    30.20F
ANGELUS OAKS     N/A     76  47  36 CALM      29.72F
PINE COVE        N/A     75  45  34 SE1       29.81F

$$

SOUTHERN DESERT INCLUDING THE COACHELLA VALLEY

CITY           SKY/WX    TMP DP  RH WIND       PRES   REMARKS
PALM SPRINGS   MOSUNNY  105  51  16 NW15G25   29.75F HX 102
THOUSAND PALMS   N/A    103  53  18 W7        29.71F HX 101
PALM DESERT      N/A    106  57  19 CALM      27.30F HX 105
THERMAL        SUNNY    106  53  17 SE12      29.67F HX 104
BLYTHE         SUNNY    107  51  15 S15       29.71F HX 104
IMPERIAL AP    MOSUNNY  107  46  13 SW5       29.69F HX 103
EL CENTRO NAS  MOSUNNY  106  45  12 NE5       29.71F HX 101
YUMA AZ        MOSUNNY  106  47  13 S12G18    29.72F HX 102
MEXICALI       SUNNY    104  46  14 SE10      29.71F HX 100

$$

UPPER DESERT

CITY           SKY/WX    TMP DP  RH WIND       PRES   REMARKS
VICTORVILLE AP SUNNY     97  19   6 S24G32    29.90F
HESPERIA         N/A     91  35  14 W18       29.88F
APPLE VALLEY     N/A     91  34  13 S21       29.95F
PALMDALE       SUNNY     92  39  15 SW15G24   29.90F
LANCASTER      SUNNY     95  33  11 SW18      29.89F
EDWARDS AFB    MOSUNNY   96  27   8 SW13      29.85F
DAGGETT        MOSUNNY  102  42  13 NW7       29.81F HX  97
29 PALMS N     MOSUNNY  102  43  13 SW20G26   29.88F HX  97
NEEDLES        MOSUNNY  110  46  11 S13G22    29.73F HX 105

$$

REGIONAL REPORTS

CITY           SKY/WX    TMP DP  RH WIND       PRES   REMARKS
SANTA BARBARA  MOSUNNY   70  60  70 S8        29.92F
SANDBERG       SUNNY     85  33  15 S14G20    30.07F
LAS VEGAS NV   PTSUNNY   99  48  17 VRB3      29.80F THUNDER HX  95
PHOENIX AZ     MOSUNNY  105  53  17 N12G17    29.77F HX 103
TIJUANA        SUNNY     73  57  56 W14       29.95F
ENSENADA NW      N/A     68  32  26 W3        29.91F

$$

OFFSHORE ISLANDS

CITY           SKY/WX    TMP DP  RH WIND       PRES   REMARKS
CATALINA ARPT  SUNNY     66  58  75 VRB7      29.98F
SAN CLEMENTE I CLOUDY    69  59  70 NW12      29.96F
SAN NICOLAS IS MOSUNNY   67  56  67 NW28      29.95F

$$

MARINE AND OFFSHORE BUOY REPORTS

STATION/POSITION SKY/WX   TEMP    WIND        PRES    SWELL
                          AIR SEA DIR/SP/G            HT/PER/DIR
                          (F)     (DEG/KT/KT) (MB)    (FT/S/D)
TANNER BANKS               64 63  310/ 16/ 19 1014.9F   3/340/11
S CLEMENTE BASIN           65 68  310/  6/  8 1013.6F   3/240/19
SAN NICOLAS IS.               63                N/A     2/220/13
SO. S. ROSA ISLA           63 62  310/ 14/ 16 1013.9F   2/14
W. S. BARBARA CH           61 61  300/ 12/ 16 1013.7F   3/220/13
M. S. BARBARA CH           64 65  220/  6/  6 1014.5F
S. MONICA BASIN            64 67  240/  8/ 10 1013.9F   3/190/13
S PEDRO CHANNEL               67                N/A     2/190/13
DANA POINT                    70                N/A     2/210/20
OCEANSIDE OFFSHR              70                N/A     2/220/20
TORREY PINES OTR              70                N/A     2/220/20
LA JOLLA 1                 67 70  260/  6/  8 1013.7F
MISSION BAY BUOY              70                N/A     2/210/20
SAN DIEGO BAY                 70              1014.3F
POINT LOMA SOUTH              70                N/A     2/200/13

$$




USA.gov is the U.S. government's official web portal to all federal, state and local government web resources and services.